Regional Weather Roundup
Issued by NWS

Home | Current Version | Previous Version | Graphics & Text | Print | Product List | Glossary On
Versions: 1 2 3 4 5 6 7 8 9 10 11 12 13 14 15 16 17 18 19 20 21 22 23 24 25 26 27 28
000
ASUS45 KTFX 280510
RWRMT
MONTANA REGIONAL WEATHER ROUNDUP
NATIONAL WEATHER SERVICE GREAT FALLS MT
1100 PM MDT THU APR 27 2017

NOTE: "FAIR" INDICATES FEW OR NO CLOUDS BELOW 12000 FEET WITH NO
SIGNIFICANT WEATHER AND/OR OBSTRUCTIONS TO VISIBILITY.

MTZ001>007-043-280600-
WEST OF THE DIVIDE

CITY           SKY/WX    TMP DP  RH WIND       PRES   REMARKS
KALISPELL      CLOUDY    40  38  93 SE5       29.89R
MISSOULA       CLOUDY    39  29  67 NW7       29.94R
BUTTE          CLOUDY    33  23  66 NW8       29.86R WCI  26
MULLAN PASS    SNOW      27  27 100 VRB5      29.88R VSB 1/2
ANACONDA         N/A     34  19  55 W6        29.88R WCI  29
DEER LODGE       N/A     28  25  86 NW3       29.90S
EUREKA           N/A     41  36  81 E8        29.88R
HAMILTON         N/A     34  27  75 E6        29.93S WCI  29
LIBBY            N/A     43  34  70 SE3       29.88S
PLAINS           N/A     44  32  63 CALM      29.94
THOMPSON FALLS   N/A     42  34  73 CALM      29.99R
$$

MTZ008-052>055-280600-
SOUTHWEST MONTANA

CITY           SKY/WX    TMP DP  RH WIND       PRES   REMARKS
BOZEMAN        CLOUDY    36  34  92 SE7       29.84R WCI  30
DILLON         CLOUDY    35  27  72 W3        29.84R
W YELLOWSTONE  CLOUDY    28  28 100 CALM      29.79F
ENNIS          CLOUDY    32  32 100 E5        29.88R
THREE FORKS      N/A     37  37 100 W7        29.87R WCI  31
TWIN BRIDGES     N/A     38  22  52 N16       29.84  WCI  29
$$

MTZ009-010-012-014-046-048-049-054-280600-
EAST SLOPES AND CENTRAL MONTANA

CITY           SKY/WX    TMP DP  RH WIND       PRES   REMARKS
CUT BANK       CLOUDY    38  32  79 S3        29.84R
GREAT FALLS    CLOUDY    39  35  86 CALM      29.86R
MALMSTROM AFB  DRIZZLE   38  38  98 S5        29.87R
HELENA         CLOUDY    39  34  82 SW5       29.86R
AUGUSTA        CLOUDY    34  34 100 CALM      29.85R
BOWMANS CRNR     N/A     33  31  92 S6        29.84R WCI  28
CHOTEAU          N/A     37  36  93 CALM      29.87S
FAIRFIELD        N/A     35  34  94 CALM      29.85R
POWER          LGT RAIN  37  35  93 W3        29.85R
RAYNESFORD     LGT RAIN  35  34  97 W7        29.86R WCI  29
ULM            MOCLDY    37  36  96 CALM      29.86R
$$

MTZ011-013-016-021-045-047-050-051-280600-
NORTH CENTRAL MONTANA

CITY           SKY/WX    TMP DP  RH WIND       PRES   REMARKS
HAVRE          MOCLDY    38  35  89 NE5       29.85R
LEWISTOWN      LGT RAIN  35  34  96 N7        29.81S FOG     WCI  29
N BAR RANCH    CLOUDY    37  36  93 NW9       29.81R WCI  31
CHINOOK          N/A     37  36  93 CALM      29.86R
DENTON         LGT RAIN  39  37  91 MISG      29.80R
FORT BENTON      N/A     41  37  87 N2        29.86S
GEYSER         LGT RAIN  36  34  93 W10       29.84R WCI  28
GRASS RANGE    LGT RAIN  38  36  89 NW3       29.77R
JUDITH GAP     LGT RAIN  35  33  93 N21G28    29.79S WCI  23
STANFORD       MOCLDY    35  34  96 NW14      29.83R WCI  26
WINIFRED       MOCLDY    38  38  99 W6        29.82R
$$

MTZ017>020-022>027-061-062-280600-
NORTHEAST MONTANA

CITY           SKY/WX    TMP DP  RH WIND       PRES   REMARKS
GLASGOW        CLOUDY    46  15  28 E12       29.80R
JORDAN           N/A     43  29  57 CALM      29.77R
SIDNEY         CLEAR     36  19  50 N6        29.84R WCI  31
WOLF POINT     PTCLDY    36  18  48 NE8       29.82R WCI  30
MALTA          CLOUDY    45  36  70 NE5       29.81R
PLENTYWOOD       N/A     34  18  51 NE7       29.85R WCI  28
POPLAR           N/A     36  16  44 NE3       29.83R
SCOBEY           N/A     33  13  44 CALM      29.82
$$

MTZ028>42-056>058-280600-
SOUTHCENTRAL AND SOUTHEAST MONTANA

CITY           SKY/WX    TMP DP  RH WIND       PRES   REMARKS
BAKER          PTCLDY    32  25  75 SE5       29.79R
BILLINGS       LGT RAIN  39  37  92 N6        29.78S
LIVINGSTON     CLOUDY    37  32  82 W12       29.82R WCI  29
MILES CITY     CLOUDY    44  25  47 E5        29.76R
BIG TIMBER     CLOUDY    37  34  87 W9        29.83R WCI  31
EKALAKA          N/A     39  25  58 E7        29.76
LAUREL           N/A     39  32  76 CALM      29.79S
ROUNDUP          N/A     40  35  82 W3        29.73R
$$

REGIONAL REPORTS...DAKOTAS

CITY           SKY/WX    TMP DP  RH WIND       PRES   REMARKS
WILLISTON      CLEAR     39  13  34 E8        29.85R
MINOT          CLEAR     32  25  75 N3        29.86R
DICKINSON      CLEAR     32  16  51 E6        29.80R WCI  26
BEACH            N/A     28  21  74 E8        29.84R WCI  20
TIOGA            N/A     30  14  51 CALM      29.87R
WATFORD CITY     N/A     28  16  59 E7        29.84R WCI  21
BISMARCK       CLEAR     36  27  69 NE8       29.85R WCI  30
GRAND FORKS    MOCLDY    33  29  85 NW5       29.83R
FARGO          MOCLDY    36  29  75 NW17G25   29.82R WCI  26
BUFFALO SD       N/A     38  27  64 E13       29.70S WCI  30
RAPID CITY     CLOUDY    39  31  72 NE8       29.75R
$$

REGIONAL REPORTS...WYOMING/IDAHO/WASHINGTON

CITY           SKY/WX    TMP DP  RH WIND       PRES   REMARKS
GILLETTE       SNOW      33  33 100 N5        29.69S
SHERIDAN       FLURRIES  34  32  92 W7        29.76R WCI  28
BUFFALO WY     LGT SNOW  34  31  88 NW14      29.72S VSB 3/4 WCI  25
CODY           MIX PCPN  36  32  87 N14G23    29.76R WCI  27
YELLOWSTONE LA   N/A     25  22  88 NW6       29.78R WCI  18
IDAHO FALLS    FLURRIES  34  33  96 W9        29.84S WCI  27
SALMON         CLEAR     36  19  51 N5        29.90R
BOISE          CLOUDY    42  30  62 NW9       29.96R
SPOKANE        MOCLDY    47  31  53 S9        29.92R
$$

REGIONAL REPORTS...ALBERTA

CITY           SKY/WX    TMP DP  RH WIND       PRES   REMARKS
EDMONTON       CLEAR     34  30  86 E3        29.93R
CALGARY        MOCLDY    36  27  69 E9        29.86R WCI  29
LETHBRIDGE     CLOUDY    39  37  93 SW6       29.85R
MEDICINE HAT   CLOUDY    43  32  65 CALM      29.85R
CARDSTON         N/A     34  34 100 SW2         N/A
MILK RIVER       N/A     36  34  93 S3          N/A
$$

REGIONAL REPORTS...SASKATCHEWAN

CITY           SKY/WX    TMP DP  RH WIND       PRES   REMARKS
SWIFT CURRENT  CLOUDY    39  36  87 CALM      29.84R
REGINA         PTCLDY    39  10  30 E13       29.87S WCI  32
SASKATOON      CLOUDY    39  19  45 NE6       29.90R
VAL MARIE        N/A     39  36  87 NW6         N/A
ROCKGLEN         N/A     39  14  35 SE9         N/A
ASSINIBOIA       N/A     34  34 100 NE5         N/A
$$




USA.gov is the U.S. government's official web portal to all federal, state and local government web resources and services.